Location: Newark
(35.2672°N, 80.7344°W)
Time: 02:44:47
(UTC+00:00)

Tiros 1 - Pass Details

Date: 20 January 2020
Orbit: 631 x 664 km, 48.4° (Epoch: 19 February)

Event Time Altitude Azimuth Distance (km) Brightness Sun altitude
Rises 01:06:41 0° 311° (NW) 2,986 11.2 -30.2°
Reaches altitude 10° 01:09:14 10° 321° (NW) 2,076 10.1 -30.7°
Enters shadow 01:10:37 18° 331° (NNW) 1,631 9.4 -31.0°
Maximum altitude 01:13:34 33° 25° (NNE) 1,107 - -31.6°
Drops below altitude 10° 01:17:55 10° 90° (E) 2,077 - -32.4°
Sets 01:20:28 0° 100° (E) 2,987 - -33.0°
